Starlink 11227

operational
NORAD ID: 60303 Int'l Des: 2024-133 Owner: SPXS Country: US Constellation: starlink
LEOCIRCULAR

Über Starlink 11227

Beschreibung wird geladen...

Live-Position

3D-Globus wird geladen...

Nächste Überflüge

Höhenverlauf

Altitude vs Time

uPlot chart will show altitude changes over time

Zweizeiliger Elementsatz

1 60303U 24133C 25350.98929996 .00018812 00000-0 15975-3 0 9991
2 60303 53.1568 194.0114 0001246 111.3610 248.7541 15.69713574 80825
Epoch: 16. Dez. 2025 • Age: 21 hours

Aktueller Status

Höhe 362.8 km
Geschwindigkeit 7.69 km/s
Subsatellitenpunkt -12.33°S, 14.13°W
Startdatum 28. Juli 2024
Alter 1.3 years
Typ internet

Technische Details

Klassifizierung Payload
Masse 960.00 kg
Trockenmasse 910.00 kg
Gesamtmasse 960.00 kg
Länge 0.30 m
Durchmesser 4.10 m
Spannweite 29.00 m
Form Box + pan
Hersteller SPXS
Bus-Typ Starlink V2MD
Phasenstatus In Orbit
Besitzer/Staat SPXS/US

Große Konstellationen

Loading constellations...